Regional Weather Roundup
Issued by NWS

Home | Current Version | Previous Version | Graphics & Text | Print | Product List | Glossary On
Versions: 1 2 3 4 5 6 7 8 9 10 11 12 13 14 15 16 17 18 19 20 21 22 23 24 25 26 27 28 29 30 31 32 33 34 35 36 37 38 39 40 41 42 43 44 45 46 47 48 49 50
451
ASUS43 KFSD 210702
RWRSD

WEATHER ROUNDUP FOR SOUTH DAKOTA
NATIONAL WEATHER SERVICE SIOUX FALLS SD
100 AM CST TUE FEB 21 2017

NOTE: "FAIR" INDICATES FEW OR NO CLOUDS BELOW 12,000 FEET WITH NO
SIGNIFICANT WEATHER AND/OR OBSTRUCTIONS TO VISIBILITY.


SDZ001>005-009-010-012>017-210800-
NORTHWEST AND NORTH CENTRAL SOUTH DAKOTA

CITY           SKY/WX    TMP DP  RH WIND       PRES   REMARKS
BUFFALO          N/A     49  31  49 W17       29.63R
FAITH            N/A     41  29  62 S14       29.71S
MOBRIDGE       PTCLDY    38  30  73 SE13      29.70F
$$

SDZ012>016-024>037-041>051-057-063-072>074-210800-
SOUTHWEST AND SOUTH CENTRAL SOUTH DAKOTA

CITY           SKY/WX    TMP DP  RH WIND       PRES   REMARKS
RAPID CTY ARPT MOCLDY    59  28  30 SW23G33   29.76F
PIERRE         CLEAR     41  28  60 SE12      29.76F
CUSTER         CLOUDY    44  26  49 W16G26    29.87S
ELLSWORTH AFB  PTCLDY    56  29  36 SW9       29.75F
PHILIP         CLOUDY    51  32  48 SW13      29.75F
PINE RIDGE     PTCLDY    46  30  53 S7        29.87S
SPEARFISH      FAIR      54  28  37 SW31G44   29.75R
WINNER         FAIR      48  29  47 SW15      29.83F
$$

SDZ004>011-016>023-039-040-210800-
NORTHEAST SOUTH DAKOTA

CITY           SKY/WX    TMP DP  RH WIND       PRES   REMARKS
ABERDEEN       CLEAR     32  30  92 S8        29.82R WCI  25
WATERTOWN      CLEAR     31  30  96 S5        29.85R FOG     WCI  26
BROOKINGS      CLEAR     32  31  96 S7        29.87S FOG     WCI  26
SISSETON         N/A     37  31  78 SW6       29.80R
$$

SDZ017-020-022-023-036>040-048>070-210800-
SOUTHEAST SOUTH DAKOTA

CITY           SKY/WX    TMP DP  RH WIND       PRES   REMARKS
SIOUX FALLS    FOG       31  30  96 CALM      29.90S VSB 1/2
HURON          CLEAR     37  35  92 S8        29.85S
CHAMBERLAIN    CLEAR     36  31  80 SE9       29.84S
MITCHELL       PTCLDY    35  33  92 S9        29.88S WCI  28
YANKTON        CLEAR     36  30  80 S3        29.91S
$$

ABBREVIATIONS USED IN REMARKS
   TC - TEMPERATURE IN CELSIUS
  WCI - WIND CHILL INDEX
   HX - HEAT INDEX
  VSB - VISIBILITY





USA.gov is the U.S. government's official web portal to all federal, state and local government web resources and services.